a  42.8651524      Node   355.02300     -0.24138595     +0.63202708             
e   0.1644617      Incl.   24.10555     -0.21344968     +0.70566940             
P 281              H    9.36          G   0.15           U   6                  
Residuals in seconds of arc
K198T  W84  0.0   0.1+    K20AH  W84  0.0   0.0     K21A4  W84  0.0   0.0  
K198T  W84  0.0   0.1-    K20AH  W84  0.0   0.0     K21A4  W84  0.0   0.0  
K199R  W84  0.0   0.0     K2196  W84  0.1+  0.1+    
K199R  W84  0.0   0.0     K2196  W84  0.1-  0.1-    
2019 QC111                                                                      
Epoch 2023 Sept. 13.0 TT = JDT 2460200.5                Pike                    
M 174.02013              (2000.0)            P               Q                  
n   0.00343428     Peri.  129.71768     -0.99971354     -0.00081660             
a  43.5089677      Node    50.24916     -0.00920697     -0.90939221             
e   0.0277566      Incl.    1.78290     +0.02209246     -0.41593887             
P 287              H    7.47          G   0.15           U   7                  
Residuals in seconds of arc
K198T  W84  0.0   0.0     K199R  W84  0.0   0.0     K21A2  W84  0.0   0.0  
K198T  W84  0.0   0.0     K219D  W84  0.0   0.0     K21A2  W84  0.0   0.0  
K199R  W84  0.0   0.0     K219D  W84  0.0   0.0     
2019 QD111                                                                      
Epoch 2023 Sept. 13.0 TT = JDT 2460200.5                Pike                    
M 216.55449              (2000.0)            P               Q                  
n   0.00344613     Peri.   99.58053     -0.80452628     -0.59298948             
a  43.4091911      Node    44.05941     +0.52448111     -0.73557118             
e   0.0565201      Incl.    2.73483     +0.27867009     -0.32756453             
P 286              H    9.16          G   0.15           U   7                  
Residuals in seconds of arc
K198U  W84  0.1+  0.1-    K199S  W84  0.0   0.2-    K21A6  W84  0.0   0.0  
K198U  W84  0.1-  0.2+    K20AI  W84  0.1-  0.0     K21A6  W84  0.0   0.0  
K199S  W84  0.1+  0.1+    K20AI  W84  0.1+  0.0     
2019 QE111                                                                      
Epoch 2023 Sept. 13.0 TT = JDT 2460200.5                Pike                    
M 196.34201              (2000.0)            P               Q                  
n   0.00335079     Peri.   80.53608     -0.93553646     -0.35174141             
a  44.2287580      Node    78.86467     +0.30974693     -0.86099748             
e   0.0381920      Incl.    1.89212     +0.16978919     -0.36737083             
P 294              H    8.69          G   0.15           U   7                  
Residuals in seconds of arc
K198T  W84  0.1-  0.0     K20AG  W84  0.0   0.0     K21A2  W84  0.0   0.0  
K198T  W84  0.1+  0.1-    K20AG  W84  0.0   0.0     K21A2  W84  0.0   0.0  
K199R  W84  0.0   0.1+    K219D  W84  0.0   0.0     
K199R  W84  0.0   0.0     K219D  W84  0.0   0.0     
2019 SO235                                                                      
Epoch 2023 Sept. 13.0 TT = JDT 2460200.5                Pike                    
M 352.18590              (2000.0)            P               Q                  
n   0.00334358     Peri.  322.68124     +0.99433589     -0.10158371             
a  44.2923334      Node    43.18184     +0.10515981     +0.89767888             
e   0.0615828      Incl.    2.61781     +0.01541249     +0.42878127             
P 295              H    9.31          G   0.15           U   6                  
Residuals in seconds of arc
K198U  W84  0.1+  0.0     K199S  W84  0.0   0.0     K21A6  W84  0.1-  0.1+ 
K198U  W84  0.0   0.1-    K20AI  W84  0.0   0.2-    K21A6  W84  0.1+  0.1- 
K199S  W84  0.0   0.0     K20AI  W84  0.1-  0.2+    
2019 SP235                                                                      
Epoch 2023 Sept. 13.0 TT = JDT 2460200.5                Pike                    
M 281.61852              (2000.0)            P               Q                  
n   0.00334745     Peri.  302.59484     +0.10368590     -0.99375938             
a  44.2581378      Node   141.38785     +0.93320067     +0.08289602             
e   0.0747770      Incl.    3.77887     +0.34407230     +0.07463610             
P 294              H    9.65          G   0.15           U   6                  
Residuals in seconds of arc
K198U  W84  0.1+  0.1+    K199S  W84  0.1-  0.1+    K21A6  W84  0.1+  0.0  
K198U  W84  0.1-  0.0     K20AI  W84  0.1-  0.0     K21A6  W84  0.1-  0.1- 
K199S  W84  0.1+  0.3-    K20AI  W84  0.0   0.1+    
2021 RJ237                                                                      
Epoch 2023 Sept. 13.0 TT = JDT 2460200.5                Pike                    
M  75.29897              (2000.0)            P               Q                  
n   0.00335530     Peri.  199.06324     +0.16261804     +0.98626821             
a  44.1890848      Node    80.30364     -0.90142912     +0.16037868             
e   0.0221324      Incl.    1.67522     -0.40122426     +0.03941685             
P 294              H    9.32          G   0.15           U   7                  
Residuals in seconds of arc
K198U  W84  0.0   0.1-    K20AI  W84  0.1+  0.1-    K21A6  W84  0.3+  0.2+ 
K198U  W84  0.0   0.1+    K2199  W84  0.1-  0.1-    K21A6  W84  0.3-  0.1- 
K20AI  W84  0.1-  0.1+    K2199  W84  0.1+  0.0     
M. P. C. Staff               (C) Copyright 2023 MPC           M.P.E.C. 2023-W153
    
    
More information about the Iaude
mailing list